Location: Chervonnoye
(48.6000°N, 34.4000°E)
Time: 14:42:34
(UTC+00:00)

Meteor 1-14 Rocket - Pass Details

Date: 23 November 2020
Orbit: 833 x 919 km, 81.3° (Epoch: 27 January)

Event Time Altitude Azimuth Distance (km) Brightness Sun altitude
Rises 16:44:12 0° 347° (NNW) 3,522 7.6 -27.6°
Reaches altitude 10° 16:46:39 10° 346° (NNW) 2,589 6.9 -28.0°
Maximum altitude 16:52:33 77° 262° (W) 939 4.4 -28.9°
Enters shadow 16:55:16 34° 182° (S) 1,456 5.3 -29.4°
